Starlink 11476

operational
NORAD ID: 62228 Int'l Des: 2024-231 Owner: SPXS Country: US Constellation: starlink
LEOCIRCULAR

Über Starlink 11476

Beschreibung wird geladen...

Live-Position

3D-Globus wird geladen...

Nächste Überflüge

Höhenverlauf

Altitude vs Time

uPlot chart will show altitude changes over time

Zweizeiliger Elementsatz

1 62228U 24231L 25259.98496371 .00213695 00000-0 17210-2 0 9991
2 62228 53.1562 237.2378 0001771 45.2653 314.8509 15.69746625 46143
Epoch: 16. Sept. 2025 • Age: 22 hours

Aktueller Status

Höhe 363.9 km
Geschwindigkeit 7.70 km/s
Subsatellitenpunkt 52.44°N, 9.25°W
Startdatum 5. Dez. 2024
Alter 0.7 years
Typ internet

Technische Details

Klassifizierung Payload
Masse 960.00 kg
Trockenmasse 910.00 kg
Gesamtmasse 960.00 kg
Länge 0.30 m
Durchmesser 4.10 m
Spannweite 29.00 m
Form Box + pan
Hersteller SPXS
Bus-Typ Starlink V2MD
Phasenstatus In Orbit
Besitzer/Staat SPXS/US

Große Konstellationen

Loading constellations...